weather.gov     
National Weather Service

Terminal Aerodrome Forecast
NWS Homepage
This page is being discontinued on March 12, 2014.
The same data is available at this site. Please update your bookmarks.
Thank you, and we apologize for the inconvenience.
Please send an email to SR-SRH.Webmaster@noaa.gov with any concerns.


Current Version
Previous Version:    01  02  03  04  05  06  07  08  09  10  11  12  13  14  
[Printable]
100
FTUS41 KGYX 021130 AAC
TAFLEB
TAF AMD
KLEB 021130Z 0212/0306 00000KT 4SM BR BKN003
      TEMPO 0212/0213 2SM BR BKN009
     FM021330 20005KT P6SM BKN060
     FM022100 24005KT P6SM SCT030
      TEMPO 0221/0301 5SM -TSRA BR BKN030CB
     FM030300 VRB03KT 1SM BR BKN005=




100
FTUS41 KGYX 021130 AAC
TAFLEB
TAF AMD
KLEB 021130Z 0212/0306 00000KT 4SM BR BKN003
      TEMPO 0212/0213 2SM BR BKN009
     FM021330 20005KT P6SM BKN060
     FM022100 24005KT P6SM SCT030
      TEMPO 0221/0301 5SM -TSRA BR BKN030CB
     FM030300 VRB03KT 1SM BR BKN005=


U.S. Dept. of Commerce
NOAA National Weather Service
1325 East West Highway
Silver Spring, MD 20910
E-mail: w-nws.webmaster@noaa.gov
Page last modified: May 16, 2007
NATIONAL WEATHER SERVICE: for Safety, for Work, for Fun - FOR LIFE